Location: Newark
(52.2090°N, 4.1550°W)
Time: 04:03:49
(UTC+00:00)

Transit 2A - Pass Details

Date: 23 October 2019
Orbit: 601 x 957 km, 66.7° (Epoch: 18 November)

Event Time Altitude Azimuth Distance (km) Brightness Sun altitude
Rises 18:37:27 0° 196° (SSW) 3,319 9.5 -14.6°
Reaches altitude 10° 18:40:04 10° 190° (S) 2,332 8.6 -15.0°
Maximum altitude 18:45:05 44° 120° (ESE) 1,005 6.2 -15.8°
Enters shadow 18:47:43 23° 61° (ENE) 1,470 7.0 -16.2°
